Wetterdaten: aktuell Donnerstag, 27.01.2022 22:10
Datum Zeit Temp. A. Feuchte A. Luftdruck Regen Wind Richtung Richtung Sonnenschein Solar Taupunkt Windchill Windben
27.01.2022 22:10 4,0 C 96 % 1021,3 hPa 0,0 l/m 6,0 km/h (2 Bft) O-NO 66 0 min 0 W/m 3,4 C 4,0 C 16,1 km/h (3 Bft)
27.01.2022 22:05 4,0 C 96 % 1021,0 hPa 0,0 l/m 7,9 km/h (2 Bft) W 271 0 min 0 W/m 3,4 C 2,6 C 20,9 km/h (4 Bft)
27.01.2022 22:00 4,0 C 96 % 1021,0 hPa 0,0 l/m 5,5 km/h (2 Bft) W 267 0 min 0 W/m 3,4 C 4,0 C 14,5 km/h (3 Bft)
27.01.2022 21:55 4,0 C 96 % 1020,9 hPa 0,0 l/m 6,0 km/h (2 Bft) W 266 0 min 0 W/m 3,4 C 4,0 C 14,5 km/h (3 Bft)
27.01.2022 21:50 4,0 C 96 % 1020,9 hPa 0,0 l/m 5,8 km/h (2 Bft) W-NW 286 0 min 0 W/m 3,4 C 4,0 C 16,1 km/h (3 Bft)
27.01.2022 21:45 4,0 C 96 % 1020,9 hPa 0,0 l/m 8,4 km/h (2 Bft) W-NW 291 0 min 0 W/m 3,4 C 2,2 C 20,9 km/h (4 Bft)
27.01.2022 21:40 4,0 C 96 % 1020,9 hPa 0,0 l/m 6,4 km/h (2 Bft) W-SW 252 0 min 0 W/m 3,4 C 4,0 C 14,5 km/h (3 Bft)
27.01.2022 21:36 4,1 C 96 % 1020,8 hPa 0,0 l/m 6,7 km/h (2 Bft) W-SW 255 0 min 0 W/m 3,5 C 3,8 C 17,7 km/h (3 Bft)
27.01.2022 21:30 4,1 C 96 % 1020,9 hPa 0,0 l/m 7,0 km/h (2 Bft) N-NW 330 0 min 0 W/m 3,5 C 3,6 C 19,3 km/h (3 Bft)
27.01.2022 21:25 4,2 C 96 % 1020,9 hPa 0,0 l/m 7,7 km/h (2 Bft) W-SW 238 0 min 0 W/m 3,6 C 3,0 C 16,1 km/h (3 Bft)
27.01.2022 21:20 4,2 C 96 % 1020,8 hPa 0,0 l/m 6,7 km/h (2 Bft) W-NW 303 0 min 0 W/m 3,6 C 3,9 C 14,5 km/h (3 Bft)
27.01.2022 21:15 4,3 C 96 % 1020,8 hPa 0,0 l/m 8,4 km/h (2 Bft) SW 229 0 min 0 W/m 3,7 C 2,5 C 16,1 km/h (3 Bft)
27.01.2022 21:10 4,3 C 96 % 1020,8 hPa 0,0 l/m 7,5 km/h (2 Bft) W 275 0 min 0 W/m 3,7 C 3,3 C 14,5 km/h (3 Bft)
27.01.2022 21:05 4,3 C 96 % 1020,7 hPa 0,0 l/m 7,5 km/h (2 Bft) N-NW 333 0 min 0 W/m 3,7 C 3,3 C 14,5 km/h (3 Bft)
27.01.2022 21:00 4,3 C 96 % 1020,6 hPa 0,0 l/m 8,0 km/h (2 Bft) W-NW 298 0 min 0 W/m 3,7 C 2,9 C 19,3 km/h (3 Bft)
27.01.2022 20:55 4,3 C 96 % 1020,6 hPa 0,0 l/m 5,3 km/h (1 Bft) W 273 0 min 0 W/m 3,7 C 4,3 C 16,1 km/h (3 Bft)
27.01.2022 20:50 4,3 C 96 % 1020,5 hPa 0,0 l/m 7,1 km/h (2 Bft) W-NW 293 0 min 0 W/m 3,7 C 3,7 C 16,1 km/h (3 Bft)
27.01.2022 20:45 4,3 C 96 % 1020,4 hPa 0,0 l/m 7,8 km/h (2 Bft) W 259 0 min 0 W/m 3,7 C 3,0 C 14,5 km/h (3 Bft)
27.01.2022 20:40 4,3 C 96 % 1020,4 hPa 0,0 l/m 6,8 km/h (2 Bft) W-NW 296 0 min 0 W/m 3,7 C 3,9 C 16,1 km/h (3 Bft)
27.01.2022 20:35 4,3 C 96 % 1020,4 hPa 0,0 l/m 6,4 km/h (2 Bft) W-SW 255 0 min 0 W/m 3,7 C 4,3 C 16,1 km/h (3 Bft)
27.01.2022 20:30 4,4 C 96 % 1020,4 hPa 0,0 l/m 6,6 km/h (2 Bft) W-NW 288 0 min 0 W/m 3,8 C 4,2 C 14,5 km/h (3 Bft)
_ Min-Zeit 04:25 06:25 15:50 - 23:35 - - - - 05:11 05:12 23:35
Minimum _ 0,9 C 92 % 1018,5 hPa - 2,5 km/h (1 Bft) - - - - -0,1 C -1,9 C 6,4 km/h (2 Bft)
_ Max-Zeit 17:05 16:55 23:00 02:35 18:25 - - 23:00 12:30 17:05 17:10 14:40
Maximum _ 5,3 C 98 % 1027,3 hPa 0,3 l/m 14,5 km/h
W (3 Bft)
- - 0 min 33 W/m 5,0 C 5,3 C 33,8 km/h
W (5 Bft)
Durchschnitt _ 2,9 C 96 % 1022,1 hPa #6,9 l/m 6,4 km/h (2 Bft) W - #0 min. 15 W/m 2,2 C 2,2 C 16,5 km/h (3 Bft)